Location: Omaha
(41.2590°N, 95.9380°W)
Time: 05:20:48
(UTC-05:00)

Tiangong 1 - Pass Details

Date: 08 October 2017
Orbit: 293 x 320 km, 42.8° (Epoch: 21 October)

Event Time Altitude Azimuth Distance (km) Brightness Sun altitude
Rises 21:03:41 0° 278° (W) 2,030 6.1 -25.1°
Reaches altitude 10° 21:05:41 10° 282° (WNW) 1,195 4.6 -25.5°
Enters shadow 21:06:10 14° 284° (WNW) 998 4.1 -25.6°
